Weather History for KPDT - March, 2014

Change the Weather History Date:

Wednesday, March 26, 2014

  Actual Average Record
Temperature  
Mean Temperature 47 °F 48 °F  
Max Temperature 57 °F 58 °F 73 °F (1946)
Min Temperature 36 °F 37 °F 21 °F (1913)
Degree Days  
Heating Degree Days 18 18  
Month to date heating degree days 511 532  
Since 1 July heating degree days 4776 4431  
Cooling Degree Days 0 0  
Month to date cooling degree days 0 0  
Year to date cooling degree days 0 0  
Moisture  
Dew Point 37 °F    
Average Humidity 71    
Maximum Humidity 96    
Minimum Humidity 46    
Precipitation  
Precipitation 0.28 in 0.04 in 0.37 in (1903)
Month to date precipitation 1.54 1.13  
Year to date precipitation 3.90 3.67  
Snow  
Snow 0.00 in 0.10 in 1.30 in (1965)
Month to date snowfall 1.0 0.7  
Year to date snowfall 15.2 7.7  
Since 1 July snowfall 21.7 15.2  
Snow Depth 0.00 in    
Sea Level Pressure  
Sea Level Pressure 29.57 in    
Wind  
Wind Speed 5 mph (South)    
Max Wind Speed 24 mph    
Max Gust Speed 29 mph    
Visibility 8 miles    
Events Rain    
T = Trace of Precipitation, MM = Missing Value Source: NWS Daily Summary

Daily Weather History Graph

Daily Weather History Graph

Search for Another Location

Airport or City:

Trip Planner

Search our weather history database for the weather conditions in past years. The results will help you decide how hot, cold, wet, or windy it might be!

Date:

Astronomy

Mar. 26, 2014 Rise Set
Actual Time 6:46 AM PDT 7:15 PM PDT
Civil Twilight 6:16 AM PDT 7:45 PM PDT
Nautical Twilight 5:41 AM PDT 8:21 PM PDT
Astronomical Twilight 5:05 AM PDT 8:57 PM PDT
Moon 4:11 AM PDT (3/26) 2:48 PM PDT (3/26)
Length of Visible Light 13h 28m
Length of Day
12h 29m
Waning Crescent, 21% of the Moon is Illuminated
Mar 26
Waning Crescent
Mar 30
New
Apr 7
First Quarter
Apr 15
Full
Apr 22
Last Quarter

Hourly Weather History & Observations

Time (PDT) Temp. Windchill Dew Point Humidity Pressure Visibility Wind Dir Wind Speed Gust Speed Precip Events Conditions
12:53 AM 41.0 °F 37.1 °F 37.0 °F 86% 29.65 in 10.0 mi SSE 5.8 mph - N/A   Overcast
1:53 AM 42.1 °F 38.4 °F 35.1 °F 76% 29.65 in 10.0 mi WSW 5.8 mph - N/A   Overcast
2:53 AM 42.1 °F 39.2 °F 35.1 °F 76% 29.64 in 10.0 mi West 4.6 mph - N/A   Overcast
3:53 AM 41.0 °F 38.0 °F 36.0 °F 82% 29.62 in 10.0 mi North 4.6 mph - 0.00 in   Overcast
4:53 AM 39.9 °F 36.7 °F 35.1 °F 83% 29.62 in 10.0 mi SSW 4.6 mph - N/A   Overcast
5:53 AM 37.9 °F 34.4 °F 35.1 °F 89% 29.61 in 10.0 mi South 4.6 mph - N/A   Scattered Clouds
6:53 AM 37.0 °F 31.6 °F 34.0 °F 89% 29.61 in 10.0 mi SSE 6.9 mph - N/A   Mostly Cloudy
7:53 AM 41.0 °F 38.0 °F 37.0 °F 86% 29.60 in 10.0 mi SE 4.6 mph - N/A   Partly Cloudy
8:53 AM 45.0 °F - 35.1 °F 68% 29.60 in 10.0 mi Calm Calm - N/A   Overcast
9:53 AM 50.0 °F - 36.0 °F 59% 29.59 in 10.0 mi SSW 4.6 mph - N/A   Overcast
10:53 AM 52.0 °F - 32.0 °F 47% 29.58 in 10.0 mi Calm Calm - N/A   Mostly Cloudy
11:53 AM 54.0 °F - 33.1 °F 45% 29.57 in 10.0 mi West 3.5 mph - N/A   Mostly Cloudy
12:43 PM 48.0 °F - 42.1 °F 80% 29.58 in 6.0 mi SSE 8.1 mph - 0.00 in Rain Light Rain
12:53 PM 50.0 °F - 39.9 °F 68% 29.56 in 10.0 mi East 4.6 mph - 0.00 in   Mostly Cloudy
1:53 PM 55.0 °F - 36.0 °F 49% 29.54 in 10.0 mi East 5.8 mph - N/A   Mostly Cloudy
2:53 PM 55.9 °F - 35.1 °F 45% 29.52 in 10.0 mi WNW 5.8 mph - 0.00 in Rain Light Rain
3:53 PM 57.0 °F - 36.0 °F 45% 29.50 in 10.0 mi Calm Calm - 0.00 in   Mostly Cloudy
4:53 PM 55.0 °F - 35.1 °F 47% 29.49 in 10.0 mi Calm Calm - N/A   Scattered Clouds
5:53 PM 48.0 °F - 39.0 °F 71% 29.53 in 10.0 mi SW 24.2 mph 28.8 mph 0.00 in Rain Light Rain
6:06 PM 44.1 °F 35.7 °F 39.9 °F 85% 29.54 in 1.8 mi WSW 20.7 mph - 0.03 in Rain Heavy Rain
6:12 PM 44.1 °F 35.9 °F 41.0 °F 89% 29.55 in 1.0 mi WSW 19.6 mph - 0.08 in Rain Heavy Rain
6:15 PM 44.1 °F 37.1 °F 41.0 °F 89% 29.55 in 0.8 mi West 15.0 mph - 0.11 in Rain Heavy Rain
6:20 PM 45.0 °F 39.7 °F 39.9 °F 82% 29.55 in 1.0 mi WSW 10.4 mph - 0.15 in Rain Heavy Rain
6:40 PM 43.0 °F 38.2 °F 41.0 °F 93% 29.52 in 2.0 mi SSE 8.1 mph - 0.26 in Rain Rain
6:44 PM 43.0 °F 36.0 °F 41.0 °F 93% 29.52 in 3.0 mi ESE 13.8 mph - 0.27 in Rain Rain
6:53 PM 44.1 °F 38.1 °F 41.0 °F 89% 29.52 in 8.0 mi ESE 11.5 mph - 0.27 in Rain Light Rain
7:53 PM 43.0 °F 37.7 °F 41.0 °F 93% 29.54 in 10.0 mi SSE 9.2 mph - 0.00 in   Overcast
8:53 PM 43.0 °F 41.3 °F 41.0 °F 93% 29.56 in 10.0 mi ESE 3.5 mph - 0.01 in   Overcast
9:53 PM 41.0 °F 38.0 °F 39.0 °F 93% 29.56 in 10.0 mi East 4.6 mph - N/A   Scattered Clouds
10:53 PM 42.1 °F 39.2 °F 39.9 °F 92% 29.57 in 10.0 mi SSE 4.6 mph - N/A   Overcast
11:53 PM 43.0 °F 39.5 °F 39.9 °F 89% 29.58 in 10.0 mi SW 5.8 mph - N/A   Overcast